This is the latest recevied weather packets stored in our database for station/object NW0017. If no packets are shown the sender has not sent any weather packets the latest 1 day(s).
| Time | Temp. | Humidity | Pressure | Rain* | Wind** | Luminosity | Snow |
|---|---|---|---|---|---|---|---|
| 1778062316 | 30.56° C | 85% | 1004.1 hPa | 0 mm | 3.58 m/s, 39° | 76 W/m² | - |
| 1778062256 | 30.56° C | 85% | 1004.1 hPa | 0 mm | 4.92 m/s, 65° | 77 W/m² | - |
| 1778062196 | 30.56° C | 85% | 1004.1 hPa | 0 mm | 4.47 m/s, 75° | 78 W/m² | - |
| 1778062136 | 30.56° C | 86% | 1004.1 hPa | 0 mm | 3.13 m/s, 54° | 79 W/m² | - |
| 1778062076 | 30.56° C | 86% | 1004.1 hPa | 0 mm | 3.58 m/s, 41° | 81 W/m² | - |
| 1778062016 | 30.56° C | 86% | 1004.1 hPa | 0 mm | 3.58 m/s, 57° | 83 W/m² | - |
| 1778061956 | 30.56° C | 86% | 1004.1 hPa | 0 mm | 4.02 m/s, 70° | 85 W/m² | - |
| 1778061896 | 30.56° C | 86% | 1004.1 hPa | 0 mm | 4.47 m/s, 73° | 88 W/m² | - |
| 1778061836 | 30.56° C | 86% | 1004.1 hPa | 0 mm | 3.58 m/s, 88° | 90 W/m² | - |
| 1778061776 | 30.56° C | 86% | 1004.1 hPa | 0 mm | 3.13 m/s, 53° | 92 W/m² | - |
| 1778061716 | 30.56° C | 86% | 1004.1 hPa | 0 mm | 3.58 m/s, 37° | 93 W/m² | - |
| 1778061656 | 30.56° C | 86% | 1004.1 hPa | 0 mm | 4.47 m/s, 34° | 97 W/m² | - |
| 1778061596 | 30.56° C | 86% | 1004.1 hPa | 0 mm | 4.47 m/s, 63° | 105 W/m² | - |
| 1778061536 | 30.56° C | 86% | 1004.1 hPa | 0 mm | 4.47 m/s, 55° | 108 W/m² | - |
| 1778061476 | 30.56° C | 86% | 1004.1 hPa | 0 mm | 4.47 m/s, 72° | 107 W/m² | - |
| 1778061416 | 30.56° C | 86% | 1004.2 hPa | 0 mm | 4.02 m/s, 44° | 106 W/m² | - |
| 1778061296 | 30.56° C | 86% | 1004.2 hPa | 0 mm | 3.13 m/s, 46° | 102 W/m² | - |
| 1778061236 | 30.56° C | 86% | 1004.2 hPa | 0 mm | 3.13 m/s, 66° | 101 W/m² | - |
| 1778061176 | 30.56° C | 87% | 1004.2 hPa | 0 mm | 3.13 m/s, 58° | 104 W/m² | - |
| 1778061116 | 30.56° C | 87% | 1004.2 hPa | 0 mm | 4.02 m/s, 52° | 108 W/m² | - |
| 1778061056 | 30.56° C | 86% | 1004.2 hPa | 0 mm | 4.02 m/s, 41° | 109 W/m² | - |
| 1778060996 | 30.56° C | 87% | 1004.2 hPa | 0 mm | 3.13 m/s, 42° | 111 W/m² | - |
| 1778060936 | 30.56° C | 87% | 1004.2 hPa | 0 mm | 2.68 m/s, 43° | 113 W/m² | - |
| 1778060876 | 30.56° C | 87% | 1004.2 hPa | 0 mm | 3.13 m/s, 48° | 115 W/m² | - |
| 1778060815 | 30.56° C | 87% | 1004.2 hPa | 0 mm | 3.13 m/s, 28° | 109 W/m² | - |
* Rain latest hour (hover to see other rain measurements)
** Current wind speed in m/s (hover to see current wind gust speed)